Location: Great Malvern
(52.1167°N, 2.3167°W)
Time: 16:08:08
(UTC+00:00)

Cosmos 1975 - Pass Details

Date: 18 September 2020
Orbit: 541 x 562 km, 82.5° (Epoch: 21 October)

Event Time Altitude Azimuth Distance (km) Brightness Sun altitude
Rises 18:44:54 0° 178° (S) 2,744 6.3 -5.2°
Reaches altitude 10° 18:47:05 10° 175° (S) 1,853 5.4 -5.6°
Maximum altitude 18:51:06 58° 96° (E) 663 2.9 -6.2°
Drops below altitude 10° 18:55:07 10° 18° (NNE) 1,862 5.5 -6.8°
Sets 18:57:19 0° 14° (NNE) 2,760 6.4 -7.1°
